CZ-2D DEB, 44606

Orbit data source: Space-Track

CZ-2D DEB, 44606 is space debris in SSO originally from a launch on Fri, 11 Nov 2016 UTC launched from the Jiuquan Satellite Launch Center, China (JSC). Debris objects in space refer to the collection of defunct objects orbiting the Earth. Examples of debris include non-operational satellites, rocket bodies, and fragments generated from explosions, collisions, or faulty payload assembly.

Loading next visibility...
Identifier
44606, 2016-068F
Orbit
SSO
Country
Flag of CNCN / PRC
Related business
Manufacturer
Unknown
Mission
Spacecraft
Bus & Motor
Unknown
Mass
Unknown
Launch date (UTC)
2016-11-11 (10 years ago)
Launch vehicle
Unknown
Launch site
Jiuquan Satellite Launch Center, China (JSC)
Object type
Payload
Rocket body
Debris
Shape & HBR
Unknown shape, 0.1 m
Radar Cross Section
Small (<0.1 m²)

Expand to show TLE details & history
Last TLE update: 6 days ago

TLE from 6 days ago
0 CZ-2D DEB
1 44606U 16068F   26167.44949022  .00000446  00000-0  30435-3 0  9999
2 44606  98.4284 244.4825 0223194 207.7604 151.1501 13.92976075486330
Epoch: 2026-06-16T10:47Z
TLE epoch observation values (Epoch: 2026-06-16T10:47:15.955Z)
Latitude
0.00002°
Longitude
177.94466°
Altitude
1,064.595 km
Speed
7.247 km/s
True Right ascension
16h 17m 55s
True Declination
0° 00' 00"
Sunlit
Object was in full shadow at epoch
Visualization orbit readout
Latitude
Unknown
Longitude
Unknown
Altitude
Unknown
Speed
Unknown
Apparent Right ascension
Unknown
Apparent Declination
Unknown
Sunlit
N/A
Visualization observer readout
Local Sidereal Time
00:49:55
Azimuth
Unknown
Elevation
Unknown
Doppler factor
Unknown
Orbital elements
Apogee altitude
1,078.187 km
Perigee altitude
752.612 km
Semi-major axis
7,293.537 km
Eccentricity
0.02232
Inclination
98.4284°
RAAN
244.4825°
Arg. of periapsis
207.7604°
True anomaly
152.35464°
Mean anomaly
151.1501°
Eccentric anomaly
151.75528°
Mean motion
3.48446 °/min
Orbital period
103.32 mins
BSTAR
0.00030435
Loading maneuver chart data...
Computing Atmospheric mass density...
Loading historical data...
Loading historical data...
Loading historical data...
Loading historical data...
Loading historical data...
Loading historical data...
Loading historical data...

Documentation

Showing up to 5 results
|